SCO6DC EGKK-EGJJ

Flight info

Callsign SCO6DC
Flight time 0h 36m
Altitude 26000
Route IMVUR N63 LELNA
Aircraft A320/M-SDE3FGHIRWY/LB1

Departure

Time 2026-05-04 22:25
Airport London Gatwick Airport (EGKK)

Arrival

Time 2026-05-04 23:01
Airport Jersey Airport (EGJJ)
Time Latitude Longitude Altitude Speed Heading
2026-05-04 21:41 51.15809 -0.17753 205 ft 0 kts 347°
2026-05-04 21:58 51.15802 -0.17751 216 ft 2 kts 347°
2026-05-04 21:58 51.15785 -0.17745 211 ft 2 kts 347°
2026-05-04 21:58 51.15769 -0.17739 217 ft 2 kts 347°
2026-05-04 21:59 51.15758 -0.17736 208 ft 3 kts 338°
2026-05-04 21:59 51.15740 -0.17712 210 ft 3 kts 289°
2026-05-04 21:59 51.15737 -0.17687 215 ft 0 kts 255°
2026-05-04 22:05 51.15736 -0.17692 205 ft 2 kts 258°
2026-05-04 22:05 51.15735 -0.17701 205 ft 0 kts 259°
2026-05-04 22:05 51.15735 -0.17705 214 ft 0 kts 259°
2026-05-04 22:06 51.15732 -0.17724 213 ft 5 kts 259°
2026-05-04 22:06 51.15722 -0.17807 205 ft 10 kts 258°
2026-05-04 22:06 51.15706 -0.17924 205 ft 12 kts 257°
2026-05-04 22:07 51.15693 -0.18016 210 ft 13 kts 257°
2026-05-04 22:07 51.15663 -0.18232 214 ft 17 kts 258°
2026-05-04 22:07 51.15617 -0.18356 209 ft 14 kts 189°
2026-05-04 22:07 51.15514 -0.18324 205 ft 16 kts 168°
2026-05-04 22:08 51.15396 -0.18283 205 ft 19 kts 168°
2026-05-04 22:08 51.15266 -0.18239 205 ft 19 kts 167°
2026-05-04 22:08 51.15188 -0.18288 215 ft 13 kts 266°
2026-05-04 22:08 51.15179 -0.18384 205 ft 6 kts 258°
2026-05-04 22:09 51.15169 -0.18459 212 ft 8 kts 257°
2026-05-04 22:09 51.15160 -0.18525 214 ft 11 kts 258°
2026-05-04 22:09 51.15133 -0.18724 205 ft 16 kts 258°
2026-05-04 22:09 51.15107 -0.18916 209 ft 19 kts 258°
2026-05-04 22:10 51.15086 -0.19064 216 ft 21 kts 257°
2026-05-04 22:10 51.15043 -0.19382 214 ft 23 kts 258°
2026-05-04 22:10 51.15008 -0.19632 205 ft 23 kts 257°
2026-05-04 22:10 51.14974 -0.19877 205 ft 23 kts 257°
2026-05-04 22:11 51.14940 -0.20128 214 ft 23 kts 258°
2026-05-04 22:11 51.14904 -0.20382 205 ft 24 kts 258°
2026-05-04 22:11 51.14880 -0.20561 212 ft 25 kts 257°
2026-05-04 22:11 51.14827 -0.20938 216 ft 28 kts 257°
2026-05-04 22:12 51.14793 -0.21154 214 ft 16 kts 245°
2026-05-04 22:12 51.14772 -0.21265 205 ft 15 kts 256°
2026-05-04 22:12 51.14706 -0.21404 208 ft 11 kts 171°
2026-05-04 22:12 51.14658 -0.21357 217 ft 6 kts 140°
2026-05-04 22:13 51.14653 -0.21351 210 ft 0 kts 146°
2026-05-04 22:15 51.14632 -0.21337 207 ft 6 kts 163°
2026-05-04 22:15 51.14611 -0.21328 205 ft 0 kts 166°
2026-05-04 22:17 51.14581 -0.21315 211 ft 10 kts 162°
2026-05-04 22:17 51.14536 -0.21264 206 ft 15 kts 131°
2026-05-04 22:17 51.14523 -0.21154 206 ft 0 kts 79°
2026-05-04 22:24 51.14524 -0.21148 206 ft 7 kts 79°
2026-05-04 22:24 51.14534 -0.21066 209 ft 38 kts 78°
2026-05-04 22:24 51.14779 -0.19310 210 ft 148 kts 77°
2026-05-04 22:24 51.14940 -0.18159 480 ft 158 kts 77°
2026-05-04 22:25 51.15265 -0.15911 1597 ft 158 kts 77°
2026-05-04 22:25 51.15515 -0.14195 2228 ft 166 kts 76°
2026-05-04 22:25 51.15777 -0.12285 2613 ft 189 kts 77°
2026-05-04 22:25 51.16069 -0.10107 3004 ft 213 kts 77°
2026-05-04 22:26 51.16283 -0.08512 3363 ft 221 kts 77°
2026-05-04 22:26 51.17078 -0.05503 4234 ft 228 kts 41°
2026-05-04 22:26 51.18513 -0.04482 5074 ft 234 kts
2026-05-04 22:26 51.20144 -0.04699 5937 ft 238 kts 347°
2026-05-04 22:27 51.21705 -0.05587 6807 ft 242 kts 322°
2026-05-04 22:27 51.22468 -0.06914 7358 ft 243 kts 296°
2026-05-04 22:27 51.22789 -0.10516 8095 ft 267 kts 261°
2026-05-04 22:27 51.22585 -0.12522 8572 ft 275 kts 259°
2026-05-04 22:28 51.22226 -0.15506 9476 ft 280 kts 258°
2026-05-04 22:28 51.21836 -0.18571 10382 ft 285 kts 257°
2026-05-04 22:28 51.21437 -0.21731 11241 ft 289 kts 258°
2026-05-04 22:28 51.21050 -0.24861 12092 ft 293 kts 258°
2026-05-04 22:29 51.20656 -0.28125 12949 ft 298 kts 258°
2026-05-04 22:29 51.20400 -0.30289 13508 ft 301 kts 258°
2026-05-04 22:29 51.19881 -0.34727 14548 ft 307 kts 258°
2026-05-04 22:29 51.19474 -0.38042 15309 ft 310 kts 257°
2026-05-04 22:30 51.19028 -0.41471 16087 ft 313 kts 257°
2026-05-04 22:30 51.18575 -0.44887 16851 ft 316 kts 257°
2026-05-04 22:30 51.18122 -0.48286 17607 ft 319 kts 257°
2026-05-04 22:30 51.17659 -0.51761 18362 ft 322 kts 256°
2026-05-04 22:31 51.16967 -0.55183 18864 ft 331 kts 246°
2026-05-04 22:31 51.16052 -0.58676 18998 ft 351 kts 246°
2026-05-04 22:31 51.15079 -0.62311 19423 ft 361 kts 245°
2026-05-04 22:31 51.14086 -0.66000 20025 ft 364 kts 245°
2026-05-04 22:32 51.13082 -0.69728 20663 ft 367 kts 245°
2026-05-04 22:32 51.12077 -0.73473 21308 ft 370 kts 245°
2026-05-04 22:32 51.11064 -0.77254 21939 ft 372 kts 245°
2026-05-04 22:32 51.10043 -0.81053 22558 ft 375 kts 245°
2026-05-04 22:33 51.09012 -0.84879 23161 ft 377 kts 245°
2026-05-04 22:33 51.07974 -0.88724 23734 ft 380 kts 245°
2026-05-04 22:33 51.06928 -0.92599 24239 ft 382 kts 245°
2026-05-04 22:33 51.05880 -0.96493 24727 ft 384 kts 245°
2026-05-04 22:34 51.04826 -1.00408 25223 ft 387 kts 245°
2026-05-04 22:34 51.03764 -1.04346 25706 ft 389 kts 245°
2026-05-04 22:34 51.02694 -1.08296 25974 ft 389 kts 244°
2026-05-04 22:34 51.01631 -1.12201 26027 ft 378 kts 244°
2026-05-04 22:35 51.00613 -1.15944 26031 ft 364 kts 244°
2026-05-04 22:35 50.99617 -1.19598 26030 ft 359 kts 244°
2026-05-04 22:35 50.98620 -1.23234 26031 ft 358 kts 244°
2026-05-04 22:35 50.97623 -1.26853 26030 ft 358 kts 244°
2026-05-04 22:36 50.96546 -1.30388 26032 ft 355 kts 237°
2026-05-04 22:36 50.95075 -1.33521 26032 ft 353 kts 225°
2026-05-04 22:36 50.93244 -1.36083 26033 ft 351 kts 214°
2026-05-04 22:36 50.91134 -1.38027 26030 ft 351 kts 206°
2026-05-04 22:37 50.88951 -1.39763 26030 ft 351 kts 206°
2026-05-04 22:37 50.86770 -1.41501 26032 ft 351 kts 206°
2026-05-04 22:37 50.84591 -1.43239 26034 ft 351 kts 206°
2026-05-04 22:37 50.82411 -1.44978 26036 ft 351 kts 206°
2026-05-04 22:38 50.80235 -1.46714 26034 ft 350 kts 206°
2026-05-04 22:38 50.78793 -1.47861 26040 ft 350 kts 206°
2026-05-04 22:38 50.75880 -1.50173 26033 ft 350 kts 206°
2026-05-04 22:38 50.73705 -1.51899 26036 ft 350 kts 206°
2026-05-04 22:39 50.71533 -1.53617 26040 ft 349 kts 206°
2026-05-04 22:39 50.69360 -1.55336 26040 ft 349 kts 206°
2026-05-04 22:39 50.67190 -1.57051 26039 ft 349 kts 206°
2026-05-04 22:39 50.65019 -1.58764 26040 ft 349 kts 206°
2026-05-04 22:40 50.62851 -1.60477 26040 ft 349 kts 206°
2026-05-04 22:40 50.60684 -1.62187 26043 ft 348 kts 206°
2026-05-04 22:40 50.58517 -1.63898 26037 ft 348 kts 206°
2026-05-04 22:40 50.56351 -1.65603 26037 ft 348 kts 206°
2026-05-04 22:41 50.54187 -1.67304 26037 ft 348 kts 206°
2026-05-04 22:41 50.52027 -1.68997 26038 ft 347 kts 206°
2026-05-04 22:41 50.49865 -1.70692 26035 ft 347 kts 206°
2026-05-04 22:41 50.47708 -1.72384 26036 ft 347 kts 206°
2026-05-04 22:42 50.46248 -1.73528 26034 ft 347 kts 206°
2026-05-04 22:42 50.43390 -1.75767 26038 ft 346 kts 206°
2026-05-04 22:42 50.41236 -1.77453 26029 ft 346 kts 206°
2026-05-04 22:42 50.39081 -1.79130 26030 ft 346 kts 206°
2026-05-04 22:43 50.36924 -1.80803 26024 ft 346 kts 206°
2026-05-04 22:43 50.34771 -1.82471 26015 ft 345 kts 206°
2026-05-04 22:43 50.32616 -1.84143 26014 ft 345 kts 206°
2026-05-04 22:43 50.30463 -1.85819 25875 ft 347 kts 206°
2026-05-04 22:44 50.28307 -1.87494 25445 ft 346 kts 206°
2026-05-04 22:44 50.26877 -1.88603 25169 ft 346 kts 206°
2026-05-04 22:44 50.23952 -1.90868 24616 ft 355 kts 206°
2026-05-04 22:44 50.22487 -1.92003 24343 ft 355 kts 206°
2026-05-04 22:45 50.19529 -1.94296 23788 ft 354 kts 206°
2026-05-04 22:45 50.15140 -1.97685 22899 ft 350 kts 206°
2026-05-04 22:45 50.12963 -1.99364 22437 ft 348 kts 206°
2026-05-04 22:46 50.10798 -2.01032 21976 ft 346 kts 206°
2026-05-04 22:46 50.08641 -2.02687 21526 ft 344 kts 206°
2026-05-04 22:46 50.06497 -2.04328 21081 ft 342 kts 205°
2026-05-04 22:46 50.04367 -2.05956 20645 ft 341 kts 205°
2026-05-04 22:47 50.02244 -2.07580 20215 ft 339 kts 205°
2026-05-04 22:47 50.00129 -2.09200 20003 ft 338 kts 205°
2026-05-04 22:47 49.98006 -2.10645 20017 ft 339 kts 198°
2026-05-04 22:47 49.95713 -2.11572 19458 ft 344 kts 193°
2026-05-04 22:48 49.93381 -2.12382 19071 ft 339 kts 192°
2026-05-04 22:48 49.91094 -2.13151 18720 ft 334 kts 192°
2026-05-04 22:48 49.88829 -2.13908 18298 ft 332 kts 192°
2026-05-04 22:48 49.86592 -2.14659 17580 ft 327 kts 192°
2026-05-04 22:49 49.84378 -2.15405 16723 ft 325 kts 192°
2026-05-04 22:49 49.82169 -2.16150 16121 ft 325 kts 192°
2026-05-04 22:49 49.79953 -2.16901 15600 ft 327 kts 192°
2026-05-04 22:49 49.77732 -2.17658 15051 ft 325 kts 192°
2026-05-04 22:50 49.75537 -2.18407 14532 ft 321 kts 192°
2026-05-04 22:50 49.73362 -2.19148 14013 ft 319 kts 193°
2026-05-04 22:50 49.71203 -2.19881 13464 ft 317 kts 192°
2026-05-04 22:50 49.69067 -2.20664 12926 ft 314 kts 194°
2026-05-04 22:51 49.66967 -2.21526 12415 ft 311 kts 195°
2026-05-04 22:51 49.64886 -2.22420 11903 ft 311 kts 196°
2026-05-04 22:51 49.63502 -2.23020 11561 ft 312 kts 196°
2026-05-04 22:51 49.60732 -2.24213 11035 ft 307 kts 196°
2026-05-04 22:52 49.58672 -2.25087 10497 ft 302 kts 196°
2026-05-04 22:52 49.56710 -2.25909 10268 ft 282 kts 196°
2026-05-04 22:52 49.54853 -2.26684 9788 ft 273 kts 196°
2026-05-04 22:52 49.53033 -2.27440 9133 ft 269 kts 196°
2026-05-04 22:53 49.51230 -2.28188 8528 ft 268 kts 195°
2026-05-04 22:53 49.49433 -2.28932 8051 ft 267 kts 195°
2026-05-04 22:53 49.48245 -2.29424 7757 ft 267 kts 195°
2026-05-04 22:53 49.45969 -2.30370 7194 ft 267 kts 195°
2026-05-04 22:54 49.44172 -2.31118 6746 ft 268 kts 195°
2026-05-04 22:54 49.42400 -2.31852 6307 ft 266 kts 195°
2026-05-04 22:54 49.40628 -2.32584 5841 ft 262 kts 195°
2026-05-04 22:54 49.38868 -2.33313 5411 ft 261 kts 195°
2026-05-04 22:55 49.37115 -2.34041 4980 ft 260 kts 195°
2026-05-04 22:55 49.35370 -2.34762 4523 ft 260 kts 195°
2026-05-04 22:55 49.33630 -2.35481 4089 ft 258 kts 195°
2026-05-04 22:55 49.31905 -2.36194 3743 ft 253 kts 195°
2026-05-04 22:56 49.30783 -2.36657 3709 ft 242 kts 195°
2026-05-04 22:56 49.28718 -2.37502 3615 ft 223 kts 195°
2026-05-04 22:56 49.27260 -2.38103 3519 ft 211 kts 195°
2026-05-04 22:56 49.25874 -2.38677 3429 ft 202 kts 196°
2026-05-04 22:57 49.24546 -2.39225 3340 ft 194 kts 196°
2026-05-04 22:57 49.23267 -2.39749 3266 ft 185 kts 195°
2026-05-04 22:57 49.22064 -2.40207 3178 ft 172 kts 188°
2026-05-04 22:57 49.20906 -2.40009 3091 ft 167 kts 160°
2026-05-04 22:58 49.19959 -2.39009 3017 ft 168 kts 133°
2026-05-04 22:58 49.19421 -2.37421 2663 ft 172 kts 103°
2026-05-04 22:58 49.19464 -2.35610 2323 ft 171 kts 83°
2026-05-04 22:58 49.19604 -2.33838 2091 ft 164 kts 84°
2026-05-04 22:59 49.19741 -2.32136 1858 ft 160 kts 83°
2026-05-04 22:59 49.19879 -2.30471 1635 ft 153 kts 83°
2026-05-04 22:59 49.20010 -2.28912 1426 ft 144 kts 83°
2026-05-04 22:59 49.20136 -2.27414 1238 ft 141 kts 83°
2026-05-04 23:00 49.20261 -2.25940 1052 ft 139 kts 83°
2026-05-04 23:00 49.20387 -2.24480 861 ft 138 kts 82°
2026-05-04 23:00 49.20511 -2.23028 668 ft 137 kts 82°
2026-05-04 23:00 49.20629 -2.21599 458 ft 134 kts 81°
2026-05-04 23:01 49.20742 -2.20204 293 ft 127 kts 81°
2026-05-04 23:01 49.20832 -2.19137 285 ft 62 kts 82°
2026-05-04 23:01 49.20855 -2.18862 279 ft 31 kts 84°
2026-05-04 23:01 49.20886 -2.18479 277 ft 17 kts 87°
2026-05-04 23:02 49.20852 -2.18380 279 ft 16 kts 152°
2026-05-04 23:02 49.20742 -2.18459 280 ft 13 kts 230°
2026-05-04 23:02 49.20726 -2.18604 278 ft 16 kts 264°
2026-05-04 23:02 49.20712 -2.18768 279 ft 15 kts 263°
2026-05-04 23:03 49.20699 -2.18930 280 ft 18 kts 263°
2026-05-04 23:03 49.20683 -2.19112 279 ft 17 kts 262°
2026-05-04 23:03 49.20696 -2.19296 279 ft 18 kts 287°
2026-05-04 23:03 49.20708 -2.19361 282 ft 19 kts 285°
2026-05-04 23:04 49.20662 -2.19649 279 ft 14 kts 213°
2026-05-04 23:04 49.20613 -2.19752 281 ft 12 kts 263°
2026-05-04 23:04 49.20602 -2.19875 281 ft 13 kts 261°
2026-05-04 23:04 49.20527 -2.19927 281 ft 14 kts 173°
2026-05-04 23:05 49.20438 -2.19885 281 ft 13 kts 124°
2026-05-04 23:05 49.20441 -2.19786 280 ft 6 kts 57°
2026-05-04 23:05 49.20471 -2.19784 281 ft 4 kts 354°
2026-05-04 23:05 49.20488 -2.19788 281 ft 0 kts 352°